OBJECT F, 69587

Orbit data source: Space-Track

You're viewing an Uncataloged Satellite

Recently launched and/or uncataloged satellites may have evolving metadata. Metadata may include but not limited to: Owner, Maufacturer, Bus, Motor, and Mission.

OBJECT F, 69587 is a satellite owned by Centispace (CN) in LEO that was launched on Wed, 17 Jun 2026 UTC via a KUAIZHOU-11 launch vehicle from the Jiuquan Satellite Launch Center, China (JSC). Unknown objects in Earth's orbit typically refer to objects detected orbiting the Earth but have not yet been identified or cataloged. These objects could be anything from previously untracked satellites, spent rocket stages, debris from satellite collisions, or even natural meteoroids temporarily captured by Earth's gravity.

Loading next visibility...
Identifier
69587, 2026-138F
Orbit
LEO
Country
Flag of CNCN / PRC
Related business
Manufacturer
HITSAT
Mission
Operational spacecraft
Bus & Motor
WK01H, Unknown motor
Mass
140 kg wet, 140 kg dry
Launch date (UTC)
2026-06-17 (2 days ago)
Launch vehicle
KUAIZHOU-11
Launch site
Jiuquan Satellite Launch Center, China (JSC)
Object type
Unknown
Shape & HBR
Unknown
Radar Cross Section
RCS unknown

Expand to show TLE details & history
Last TLE update: 1 day ago

TLE from 1 day ago
0 OBJECT F
1 69587U 26138F   26169.41211311 -.00000098  00000-0  28096-4 0  9990
2 69587  55.1465 276.6321 0008297 285.7708  74.2351 14.16000241   194
Epoch: 2026-06-18T09:53Z
TLE epoch observation values (Epoch: 2026-06-18T09:53:26.572Z)
Latitude
-0.00006°
Longitude
-138.38447°
Altitude
838.344 km
Speed
7.435 km/s
True Right ascension
18h 26m 31s
True Declination
0° 00' 00"
Sunlit
Object was in full shadow at epoch
Visualization orbit readout
Latitude
Unknown
Longitude
Unknown
Altitude
Unknown
Speed
Unknown
Apparent Right ascension
Unknown
Apparent Declination
Unknown
Sunlit
N/A
Visualization observer readout
Local Sidereal Time
05:53:22
Azimuth
Unknown
Elevation
Unknown
Doppler factor
Unknown
Orbital elements
Apogee altitude
844.842 km
Perigee altitude
832.866 km
Semi-major axis
7,216.991 km
Eccentricity
0.00083
Inclination
55.1465°
RAAN
276.6321°
Arg. of periapsis
285.7708°
True anomaly
74.32663°
Mean anomaly
74.2351°
Eccentric anomaly
74.28086°
Mean motion
3.54005 °/min
Orbital period
101.69 mins
BSTAR
0.000028096
Loading maneuver chart data...
Computing Atmospheric mass density...
Loading historical data...
Loading historical data...
Loading historical data...
Loading historical data...
Loading historical data...
Loading historical data...
Loading historical data...

Documentation

Showing up to 5 results
|